Date,Time,WBGT,Tg
2023/7/1,1:00,23.0,23.2
2023/7/1,2:00,22.8,22.9
2023/7/1,3:00,22.6,22.7
2023/7/1,4:00,22.5,22.6
2023/7/1,5:00,22.7,23.6
2023/7/1,6:00,23.4,25.9
2023/7/1,7:00,24.0,28.2
2023/7/1,8:00,24.8,30.2
2023/7/1,9:00,26.1,32.7
2023/7/1,10:00,26.7,34.1
2023/7/1,11:00,27.3,35.0
2023/7/1,12:00,27.3,35.1
2023/7/1,13:00,27.9,35.6
2023/7/1,14:00,27.2,34.8
2023/7/1,15:00,27.6,34.2
2023/7/1,16:00,27.3,32.9
2023/7/1,17:00,26.8,31.2
2023/7/1,18:00,26.0,28.5
2023/7/1,19:00,24.9,25.6
2023/7/1,20:00,24.5,25.0
2023/7/1,21:00,24.3,24.8
2023/7/1,22:00,24.2,24.5
2023/7/1,23:00,24.0,24.3
2023/7/1,24:00,23.5,24.3
2023/7/2,1:00,22.9,23.4
2023/7/2,2:00,21.8,22.1
2023/7/2,3:00,21.2,21.6
2023/7/2,4:00,20.9,21.2
2023/7/2,5:00,21.3,22.2
2023/7/2,6:00,21.4,24.4
2023/7/2,7:00,23.3,27.8
2023/7/2,8:00,26.1,39.9
2023/7/2,9:00,27.6,42.5
2023/7/2,10:00,28.2,43.5
2023/7/2,11:00,28.1,43.8
2023/7/2,12:00,28.6,44.8
2023/7/2,13:00,29.7,46.0
2023/7/2,14:00,30.0,47.0
2023/7/2,15:00,30.3,46.7
2023/7/2,16:00,29.8,44.7
2023/7/2,17:00,29.9,41.3
2023/7/2,18:00,26.9,30.1
2023/7/2,19:00,26.0,27.4
2023/7/2,20:00,25.1,26.0
2023/7/2,21:00,24.0,25.0
2023/7/2,22:00,22.7,23.7
2023/7/2,23:00,21.9,22.9
2023/7/2,24:00,22.1,22.9
2023/7/3,1:00,21.9,22.5
2023/7/3,2:00,21.5,22.0
2023/7/3,3:00,21.8,22.2
2023/7/3,4:00,21.9,22.3
2023/7/3,5:00,21.9,23.2
2023/7/3,6:00,23.5,31.5
2023/7/3,7:00,23.3,28.3
2023/7/3,8:00,24.5,30.5
2023/7/3,9:00,27.3,41.8
2023/7/3,10:00,26.9,43.5
2023/7/3,11:00,27.6,45.1
2023/7/3,12:00,28.3,45.9
2023/7/3,13:00,29.7,46.2
2023/7/3,14:00,30.0,47.1
2023/7/3,15:00,31.1,47.1
2023/7/3,16:00,27.7,35.0
2023/7/3,17:00,28.2,33.2
2023/7/3,18:00,26.0,29.2
2023/7/3,19:00,25.4,27.1
2023/7/3,20:00,23.6,24.1
2023/7/3,21:00,22.9,23.4
2023/7/3,22:00,23.1,23.6
2023/7/3,23:00,22.9,23.4
2023/7/3,24:00,22.7,23.5
2023/7/4,1:00,22.8,23.2
2023/7/4,2:00,20.7,21.2
2023/7/4,3:00,20.6,20.8
2023/7/4,4:00,20.3,20.9
2023/7/4,5:00,20.4,21.7
2023/7/4,6:00,22.2,30.4
2023/7/4,7:00,24.0,35.9
2023/7/4,8:00,25.3,39.4
2023/7/4,9:00,26.5,41.3
2023/7/4,10:00,27.9,43.0
2023/7/4,11:00,26.3,35.2
2023/7/4,12:00,27.6,42.9
2023/7/4,13:00,24.9,34.5
2023/7/4,14:00,27.2,41.8
2023/7/4,15:00,24.7,31.7
2023/7/4,16:00,24.7,30.2
2023/7/4,17:00,22.0,26.2
2023/7/4,18:00,21.7,23.8
2023/7/4,19:00,21.0,21.9
2023/7/4,20:00,20.7,21.3
2023/7/4,21:00,20.5,21.0
2023/7/4,22:00,20.2,20.7
2023/7/4,23:00,20.0,20.3
2023/7/4,24:00,19.5,19.8
2023/7/5,1:00,19.4,19.7
2023/7/5,2:00,18.8,19.3
2023/7/5,3:00,19.0,19.5
2023/7/5,4:00,19.1,19.7
2023/7/5,5:00,19.1,20.5
2023/7/5,6:00,19.9,22.8
2023/7/5,7:00,20.3,24.5
2023/7/5,8:00,21.3,27.0
2023/7/5,9:00,22.6,29.2
2023/7/5,10:00,24.7,31.8
2023/7/5,11:00,25.5,32.9
2023/7/5,12:00,25.6,33.1
2023/7/5,13:00,25.4,33.1
2023/7/5,14:00,24.8,31.8
2023/7/5,15:00,24.8,31.2
2023/7/5,16:00,24.4,29.8
2023/7/5,17:00,24.1,28.0
2023/7/5,18:00,23.7,25.7
2023/7/5,19:00,22.5,23.2
2023/7/5,20:00,22.5,23.2
2023/7/5,21:00,21.9,22.7
2023/7/5,22:00,21.6,22.3
2023/7/5,23:00,21.6,22.0
2023/7/5,24:00,20.7,21.0
2023/7/6,1:00,19.9,20.1
2023/7/6,2:00,19.8,19.9
2023/7/6,3:00,20.0,20.1
2023/7/6,4:00,20.1,20.3
2023/7/6,5:00,20.4,21.4
2023/7/6,6:00,21.0,23.5
2023/7/6,7:00,21.8,26.0
2023/7/6,8:00,25.5,38.1
2023/7/6,9:00,27.3,41.3
2023/7/6,10:00,28.2,42.4
2023/7/6,11:00,29.0,43.7
2023/7/6,12:00,29.1,44.6
2023/7/6,13:00,29.4,45.9
2023/7/6,14:00,30.2,46.7
2023/7/6,15:00,28.4,47.7
2023/7/6,16:00,27.6,46.8
2023/7/6,17:00,24.2,34.4
2023/7/6,18:00,25.9,31.1
2023/7/6,19:00,25.2,27.5
2023/7/6,20:00,24.3,26.1
2023/7/6,21:00,24.1,25.8
2023/7/6,22:00,22.9,24.2
2023/7/6,23:00,22.4,23.6
2023/7/6,24:00,21.7,22.9
2023/7/7,1:00,21.7,22.6
2023/7/7,2:00,21.0,21.8
2023/7/7,3:00,20.1,20.9
2023/7/7,4:00,18.7,19.8
2023/7/7,5:00,18.9,22.8
2023/7/7,6:00,20.9,29.3
2023/7/7,7:00,23.9,36.4
2023/7/7,8:00,26.3,41.4
2023/7/7,9:00,27.0,44.4
2023/7/7,10:00,29.3,46.4
2023/7/7,11:00,29.9,48.3
2023/7/7,12:00,29.6,47.0
2023/7/7,13:00,30.9,48.5
2023/7/7,14:00,31.3,49.3
2023/7/7,15:00,30.5,49.2
2023/7/7,16:00,29.7,46.0
2023/7/7,17:00,27.9,41.6
2023/7/7,18:00,25.2,32.1
2023/7/7,19:00,23.1,27.6
2023/7/7,20:00,21.3,24.5
2023/7/7,21:00,22.0,24.4
2023/7/7,22:00,22.1,23.8
2023/7/7,23:00,22.0,23.3
2023/7/7,24:00,21.8,23.1
2023/7/8,1:00,21.7,23.2
2023/7/8,2:00,21.4,23.0
2023/7/8,3:00,21.5,22.9
2023/7/8,4:00,21.4,23.1
2023/7/8,5:00,21.7,23.8
2023/7/8,6:00,22.4,25.5
2023/7/8,7:00,22.9,27.2
2023/7/8,8:00,23.5,29.0
2023/7/8,9:00,24.3,31.1
2023/7/8,10:00,25.0,32.2
2023/7/8,11:00,24.9,32.5
2023/7/8,12:00,24.9,32.4
2023/7/8,13:00,24.8,32.4
2023/7/8,14:00,24.4,31.3
2023/7/8,15:00,24.1,30.1
2023/7/8,16:00,24.1,29.3
2023/7/8,17:00,23.7,27.8
2023/7/8,18:00,23.3,25.9
2023/7/8,19:00,22.8,23.7
2023/7/8,20:00,22.8,23.4
2023/7/8,21:00,22.9,23.2
2023/7/8,22:00,22.8,23.0
2023/7/8,23:00,22.9,22.9
2023/7/8,24:00,22.6,22.7
2023/7/9,1:00,22.5,22.7
2023/7/9,2:00,22.6,22.7
2023/7/9,3:00,22.5,22.6
2023/7/9,4:00,22.4,22.5
2023/7/9,5:00,22.7,23.6
2023/7/9,6:00,23.6,26.1
2023/7/9,7:00,24.9,29.1
2023/7/9,8:00,25.4,31.2
2023/7/9,9:00,25.8,32.5
2023/7/9,10:00,26.0,33.4
2023/7/9,11:00,29.1,43.5
2023/7/9,12:00,29.6,44.3
2023/7/9,13:00,27.9,36.3
2023/7/9,14:00,30.9,45.6
2023/7/9,15:00,32.2,46.4
2023/7/9,16:00,29.6,35.3
2023/7/9,17:00,29.3,33.7
2023/7/9,18:00,27.8,30.4
2023/7/9,19:00,26.3,27.4
2023/7/9,20:00,25.9,26.9
2023/7/9,21:00,25.8,26.4
2023/7/9,22:00,25.6,26.0
2023/7/9,23:00,25.2,25.8
2023/7/9,24:00,25.0,25.6
2023/7/10,1:00,24.7,25.4
2023/7/10,2:00,24.6,25.2
2023/7/10,3:00,24.2,24.6
2023/7/10,4:00,24.1,24.5
2023/7/10,5:00,24.1,25.2
2023/7/10,6:00,26.4,35.0
2023/7/10,7:00,28.9,41.0
2023/7/10,8:00,29.9,43.6
2023/7/10,9:00,28.5,35.8
2023/7/10,10:00,31.3,45.9
2023/7/10,11:00,32.1,47.0
2023/7/10,12:00,32.0,47.3
2023/7/10,13:00,31.7,47.8
2023/7/10,14:00,30.6,39.3
2023/7/10,15:00,34.8,49.7
2023/7/10,16:00,29.5,41.6
2023/7/10,17:00,22.9,26.5
2023/7/10,18:00,23.8,25.6
2023/7/10,19:00,23.5,23.9
2023/7/10,20:00,23.6,23.8
2023/7/10,21:00,23.7,23.9
2023/7/10,22:00,23.8,23.9
2023/7/10,23:00,23.7,23.8
2023/7/10,24:00,23.7,23.8
2023/7/11,1:00,23.6,23.8
2023/7/11,2:00,23.3,23.5
2023/7/11,3:00,23.2,23.3
2023/7/11,4:00,22.6,22.8
2023/7/11,5:00,22.6,23.5
2023/7/11,6:00,25.1,32.8
2023/7/11,7:00,27.4,39.3
2023/7/11,8:00,29.3,42.9
2023/7/11,9:00,30.4,44.8
2023/7/11,10:00,30.2,45.2
2023/7/11,11:00,31.2,45.9
2023/7/11,12:00,31.2,46.8
2023/7/11,13:00,31.6,47.4
2023/7/11,14:00,33.1,48.1
2023/7/11,15:00,32.7,48.2
2023/7/11,16:00,32.4,47.2
2023/7/11,17:00,29.5,33.9
2023/7/11,18:00,28.7,31.5
2023/7/11,19:00,22.8,23.3
2023/7/11,20:00,23.1,23.5
2023/7/11,21:00,23.4,23.8
2023/7/11,22:00,23.6,23.9
2023/7/11,23:00,23.6,23.7
2023/7/11,24:00,23.5,23.5
2023/7/12,1:00,23.5,23.6
2023/7/12,2:00,23.1,23.2
2023/7/12,3:00,22.7,23.1
2023/7/12,4:00,22.4,22.6
2023/7/12,5:00,22.9,25.8
2023/7/12,6:00,25.0,33.0
2023/7/12,7:00,27.0,38.9
2023/7/12,8:00,29.3,43.1
2023/7/12,9:00,30.1,44.6
2023/7/12,10:00,30.8,46.0
2023/7/12,11:00,31.5,46.4
2023/7/12,12:00,32.7,48.7
2023/7/12,13:00,34.4,49.9
2023/7/12,14:00,31.9,47.7
2023/7/12,15:00,29.6,46.5
2023/7/12,16:00,30.5,47.8
2023/7/12,17:00,28.0,34.5
2023/7/12,18:00,26.9,31.0
2023/7/12,19:00,25.8,27.5
2023/7/12,20:00,22.9,25.3
2023/7/12,21:00,22.2,24.3
2023/7/12,22:00,22.0,24.1
2023/7/12,23:00,21.7,23.6
2023/7/12,24:00,22.1,23.5
2023/7/13,1:00,21.9,23.2
2023/7/13,2:00,21.9,22.7
2023/7/13,3:00,21.9,22.4
2023/7/13,4:00,21.2,21.6
2023/7/13,5:00,21.3,22.5
2023/7/13,6:00,21.5,24.3
2023/7/13,7:00,22.0,26.2
2023/7/13,8:00,23.2,29.0
2023/7/13,9:00,25.8,39.7
2023/7/13,10:00,26.8,41.4
2023/7/13,11:00,27.6,42.4
2023/7/13,12:00,26.0,34.8
2023/7/13,13:00,26.5,35.2
2023/7/13,14:00,26.8,35.2
2023/7/13,15:00,26.9,34.4
2023/7/13,16:00,28.0,34.9
2023/7/13,17:00,26.6,31.5
2023/7/13,18:00,26.0,29.3
2023/7/13,19:00,24.7,26.3
2023/7/13,20:00,23.6,23.9
2023/7/13,21:00,22.2,22.8
2023/7/13,22:00,22.6,22.9
2023/7/13,23:00,22.4,22.8
2023/7/13,24:00,22.4,22.7
2023/7/14,1:00,22.4,22.7
2023/7/14,2:00,22.4,22.7
2023/7/14,3:00,22.1,22.4
2023/7/14,4:00,22.0,22.3
2023/7/14,5:00,21.8,23.0
2023/7/14,6:00,22.5,25.2
2023/7/14,7:00,23.2,27.7
2023/7/14,8:00,23.9,29.5
2023/7/14,9:00,24.6,31.1
2023/7/14,10:00,25.6,32.5
2023/7/14,11:00,25.7,32.9
2023/7/14,12:00,25.3,32.6
2023/7/14,13:00,25.0,32.2
2023/7/14,14:00,24.9,31.6
2023/7/14,15:00,25.9,32.2
2023/7/14,16:00,26.1,31.4
2023/7/14,17:00,25.7,29.6
2023/7/14,18:00,25.2,27.5
2023/7/14,19:00,24.3,24.9
2023/7/14,20:00,23.1,23.7
2023/7/14,21:00,23.1,23.6
2023/7/14,22:00,22.9,23.5
2023/7/14,23:00,22.8,23.3
2023/7/14,24:00,22.6,23.1
2023/7/15,1:00,22.5,23.1
2023/7/15,2:00,22.0,22.9
2023/7/15,3:00,22.1,22.9
2023/7/15,4:00,22.3,22.7
2023/7/15,5:00,22.5,23.6
2023/7/15,6:00,23.0,25.6
2023/7/15,7:00,23.1,27.5
2023/7/15,8:00,23.8,29.3
2023/7/15,9:00,24.6,31.2
2023/7/15,10:00,24.6,31.7
2023/7/15,11:00,26.0,33.7
2023/7/15,12:00,26.4,34.4
2023/7/15,13:00,26.7,34.5
2023/7/15,14:00,26.5,34.1
2023/7/15,15:00,26.4,33.3
2023/7/15,16:00,26.7,32.8
2023/7/15,17:00,27.1,31.5
2023/7/15,18:00,26.6,29.1
2023/7/15,19:00,25.4,26.3
2023/7/15,20:00,24.4,25.4
2023/7/15,21:00,24.3,25.2
2023/7/15,22:00,24.1,25.0
2023/7/15,23:00,23.7,24.3
2023/7/15,24:00,23.3,23.9
2023/7/16,1:00,23.0,23.4
2023/7/16,2:00,22.6,23.0
2023/7/16,3:00,22.3,22.6
2023/7/16,4:00,21.9,22.2
2023/7/16,5:00,21.9,22.9
2023/7/16,6:00,24.5,32.6
2023/7/16,7:00,27.1,38.6
2023/7/16,8:00,29.7,43.6
2023/7/16,9:00,30.0,45.5
2023/7/16,10:00,30.8,46.6
2023/7/16,11:00,31.5,48.1
2023/7/16,12:00,31.7,49.1
2023/7/16,13:00,32.4,50.7
2023/7/16,14:00,31.7,50.2
2023/7/16,15:00,32.1,49.8
2023/7/16,16:00,28.0,36.1
2023/7/16,17:00,32.6,44.6
2023/7/16,18:00,27.9,31.7
2023/7/16,19:00,28.8,30.9
2023/7/16,20:00,28.6,29.4
2023/7/16,21:00,27.2,27.7
2023/7/16,22:00,25.9,26.1
2023/7/16,23:00,25.7,26.0
2023/7/16,24:00,25.5,25.7
2023/7/17,1:00,25.0,25.3
2023/7/17,2:00,24.4,24.8
2023/7/17,3:00,24.2,24.5
2023/7/17,4:00,23.9,24.1
2023/7/17,5:00,24.0,24.9
2023/7/17,6:00,26.2,34.4
2023/7/17,7:00,28.4,40.5
2023/7/17,8:00,30.6,44.9
2023/7/17,9:00,31.8,47.0
2023/7/17,10:00,31.6,47.4
2023/7/17,11:00,32.2,48.1
2023/7/17,12:00,32.4,48.6
2023/7/17,13:00,32.7,48.8
2023/7/17,14:00,33.1,49.5
2023/7/17,15:00,33.4,49.4
2023/7/17,16:00,32.5,46.2
2023/7/17,17:00,30.3,35.6
2023/7/17,18:00,29.8,33.3
2023/7/17,19:00,27.3,29.3
2023/7/17,20:00,25.3,27.2
2023/7/17,21:00,24.7,26.5
2023/7/17,22:00,24.6,26.4
2023/7/17,23:00,24.2,25.7
2023/7/17,24:00,23.9,25.2
2023/7/18,1:00,24.1,25.0
2023/7/18,2:00,23.9,24.7
2023/7/18,3:00,23.7,24.5
2023/7/18,4:00,23.4,24.1
2023/7/18,5:00,23.5,24.9
2023/7/18,6:00,24.5,27.6
2023/7/18,7:00,27.5,38.5
2023/7/18,8:00,28.9,42.9
2023/7/18,9:00,30.2,46.0
2023/7/18,10:00,31.3,47.9
2023/7/18,11:00,31.7,49.0
2023/7/18,12:00,31.5,49.0
2023/7/18,13:00,31.8,49.9
2023/7/18,14:00,32.5,50.8
2023/7/18,15:00,32.2,50.3
2023/7/18,16:00,31.5,47.9
2023/7/18,17:00,31.4,43.4
2023/7/18,18:00,26.3,30.8
2023/7/18,19:00,26.3,28.7
2023/7/18,20:00,23.6,25.0
2023/7/18,21:00,24.2,25.0
2023/7/18,22:00,23.7,24.7
2023/7/18,23:00,23.8,24.6
2023/7/18,24:00,23.8,24.6
2023/7/19,1:00,23.6,24.5
2023/7/19,2:00,23.5,24.2
2023/7/19,3:00,23.7,24.2
2023/7/19,4:00,23.6,24.1
2023/7/19,5:00,23.6,24.9
2023/7/19,6:00,24.3,27.3
2023/7/19,7:00,25.3,30.0
2023/7/19,8:00,26.1,32.2
2023/7/19,9:00,28.0,34.9
2023/7/19,10:00,28.4,36.5
2023/7/19,11:00,27.8,35.8
2023/7/19,12:00,28.4,36.9
2023/7/19,13:00,27.5,35.7
2023/7/19,14:00,27.5,34.8
2023/7/19,15:00,28.2,34.5
2023/7/19,16:00,27.0,32.1
2023/7/19,17:00,25.2,28.5
2023/7/19,18:00,25.1,26.6
2023/7/19,19:00,24.4,24.8
2023/7/19,20:00,24.1,24.7
2023/7/19,21:00,23.7,24.4
2023/7/19,22:00,23.6,24.3
2023/7/19,23:00,23.5,23.9
2023/7/19,24:00,22.8,23.3
2023/7/20,1:00,22.4,22.8
2023/7/20,2:00,22.0,22.5
2023/7/20,3:00,21.8,22.4
2023/7/20,4:00,21.4,22.0
2023/7/20,5:00,21.8,24.7
2023/7/20,6:00,23.9,32.0
2023/7/20,7:00,25.3,37.1
2023/7/20,8:00,26.8,40.9
2023/7/20,9:00,28.8,43.6
2023/7/20,10:00,29.1,44.6
2023/7/20,11:00,29.5,46.1
2023/7/20,12:00,29.0,46.0
2023/7/20,13:00,27.3,37.2
2023/7/20,14:00,26.1,33.7
2023/7/20,15:00,25.7,32.4
2023/7/20,16:00,26.1,31.5
2023/7/20,17:00,25.2,29.2
2023/7/20,18:00,25.1,27.7
2023/7/20,19:00,24.1,24.8
2023/7/20,20:00,23.7,24.5
2023/7/20,21:00,23.0,23.7
2023/7/20,22:00,22.7,23.5
2023/7/20,23:00,22.1,22.9
2023/7/20,24:00,22.0,22.8
2023/7/21,1:00,21.7,22.3
2023/7/21,2:00,21.7,22.1
2023/7/21,3:00,21.4,22.0
2023/7/21,4:00,21.3,22.0
2023/7/21,5:00,21.4,22.7
2023/7/21,6:00,21.9,24.6
2023/7/21,7:00,22.4,26.6
2023/7/21,8:00,23.6,29.0
2023/7/21,9:00,26.8,40.7
2023/7/21,10:00,26.6,33.9
2023/7/21,11:00,27.0,34.8
2023/7/21,12:00,26.7,34.9
2023/7/21,13:00,28.3,43.2
2023/7/21,14:00,26.0,33.6
2023/7/21,15:00,28.5,43.3
2023/7/21,16:00,28.7,42.0
2023/7/21,17:00,25.5,29.9
2023/7/21,18:00,25.3,27.9
2023/7/21,19:00,24.4,25.4
2023/7/21,20:00,23.8,24.8
2023/7/21,21:00,23.3,24.1
2023/7/21,22:00,22.7,23.4
2023/7/21,23:00,22.7,23.4
2023/7/21,24:00,22.5,23.1
2023/7/22,1:00,22.4,23.0
2023/7/22,2:00,22.2,22.8
2023/7/22,3:00,21.9,22.5
2023/7/22,4:00,21.1,21.6
2023/7/22,5:00,20.9,22.0
2023/7/22,6:00,23.5,30.9
2023/7/22,7:00,25.5,37.2
2023/7/22,8:00,26.9,40.5
2023/7/22,9:00,28.3,42.6
2023/7/22,10:00,26.2,34.2
2023/7/22,11:00,26.4,34.9
2023/7/22,12:00,26.7,35.5
2023/7/22,13:00,29.6,44.9
2023/7/22,14:00,29.9,46.0
2023/7/22,15:00,30.0,45.8
2023/7/22,16:00,30.5,44.3
2023/7/22,17:00,29.8,40.5
2023/7/22,18:00,26.1,28.4
2023/7/22,19:00,24.8,25.6
2023/7/22,20:00,24.1,25.0
2023/7/22,21:00,23.5,24.4
2023/7/22,22:00,23.5,24.2
2023/7/22,23:00,23.2,23.8
2023/7/22,24:00,23.2,23.8
2023/7/23,1:00,22.7,23.2
2023/7/23,2:00,22.0,22.4
2023/7/23,3:00,22.0,22.3
2023/7/23,4:00,22.2,22.6
2023/7/23,5:00,22.3,23.3
2023/7/23,6:00,23.0,25.7
2023/7/23,7:00,25.9,37.1
2023/7/23,8:00,24.6,30.3
2023/7/23,9:00,25.3,32.0
2023/7/23,10:00,28.4,42.6
2023/7/23,11:00,28.8,43.2
2023/7/23,12:00,29.5,44.3
2023/7/23,13:00,30.1,45.4
2023/7/23,14:00,30.9,46.5
2023/7/23,15:00,30.8,46.1
2023/7/23,16:00,30.0,44.5
2023/7/23,17:00,29.4,41.2
2023/7/23,18:00,28.7,35.0
2023/7/23,19:00,26.5,27.9
2023/7/23,20:00,25.3,26.5
2023/7/23,21:00,24.4,25.6
2023/7/23,22:00,23.3,24.5
2023/7/23,23:00,22.3,23.6
2023/7/23,24:00,22.1,22.9
2023/7/24,1:00,21.3,21.9
2023/7/24,2:00,20.7,21.3
2023/7/24,3:00,20.3,20.9
2023/7/24,4:00,20.0,20.5
2023/7/24,5:00,20.1,21.2
2023/7/24,6:00,22.4,30.1
2023/7/24,7:00,25.5,36.7
2023/7/24,8:00,27.2,40.8
2023/7/24,9:00,28.2,43.0
2023/7/24,10:00,28.9,44.1
2023/7/24,11:00,29.5,44.9
2023/7/24,12:00,29.9,45.8
2023/7/24,13:00,30.7,47.2
2023/7/24,14:00,31.3,48.4
2023/7/24,15:00,31.7,48.7
2023/7/24,16:00,31.1,48.4
2023/7/24,17:00,29.7,43.9
2023/7/24,18:00,27.8,36.7
2023/7/24,19:00,24.4,26.8
2023/7/24,20:00,23.4,25.3
2023/7/24,21:00,22.2,24.1
2023/7/24,22:00,21.8,23.3
2023/7/24,23:00,21.7,23.1
2023/7/24,24:00,21.1,22.1
2023/7/25,1:00,20.7,21.7
2023/7/25,2:00,20.2,21.1
2023/7/25,3:00,20.2,21.1
2023/7/25,4:00,19.7,20.5
2023/7/25,5:00,19.4,20.8
2023/7/25,6:00,22.0,29.9
2023/7/25,7:00,25.4,37.0
2023/7/25,8:00,28.3,42.6
2023/7/25,9:00,28.4,45.2
2023/7/25,10:00,29.4,48.0
2023/7/25,11:00,29.6,49.0
2023/7/25,12:00,29.8,50.8
2023/7/25,13:00,30.7,53.7
2023/7/25,14:00,31.2,53.9
2023/7/25,15:00,30.7,52.6
2023/7/25,16:00,31.4,51.5
2023/7/25,17:00,30.0,46.8
2023/7/25,18:00,26.5,36.9
2023/7/25,19:00,24.1,27.4
2023/7/25,20:00,22.8,25.7
2023/7/25,21:00,22.0,24.6
2023/7/25,22:00,21.9,24.1
2023/7/25,23:00,22.5,24.4
2023/7/25,24:00,21.8,23.3
2023/7/26,1:00,21.4,22.7
2023/7/26,2:00,21.2,22.5
2023/7/26,3:00,20.6,21.9
2023/7/26,4:00,20.3,21.3
2023/7/26,5:00,20.7,22.2
2023/7/26,6:00,23.5,31.4
2023/7/26,7:00,26.3,38.5
2023/7/26,8:00,29.0,43.9
2023/7/26,9:00,29.8,47.4
2023/7/26,10:00,30.8,48.5
2023/7/26,11:00,30.7,49.8
2023/7/26,12:00,30.6,51.1
2023/7/26,13:00,31.9,52.0
2023/7/26,14:00,31.9,52.2
2023/7/26,15:00,32.1,51.3
2023/7/26,16:00,28.6,38.6
2023/7/26,17:00,26.6,33.1
2023/7/26,18:00,26.6,30.4
2023/7/26,19:00,25.4,28.4
2023/7/26,20:00,24.5,26.8
2023/7/26,21:00,23.9,26.2
2023/7/26,22:00,23.8,25.4
2023/7/26,23:00,23.8,25.3
2023/7/26,24:00,22.9,24.3
2023/7/27,1:00,23.0,24.4
2023/7/27,2:00,22.8,24.2
2023/7/27,3:00,22.0,23.6
2023/7/27,4:00,22.3,23.5
2023/7/27,5:00,22.3,23.9
2023/7/27,6:00,24.5,32.4
2023/7/27,7:00,27.2,39.2
2023/7/27,8:00,29.0,43.6
2023/7/27,9:00,29.3,45.9
2023/7/27,10:00,30.1,47.8
2023/7/27,11:00,31.5,48.8
2023/7/27,12:00,31.3,49.8
2023/7/27,13:00,32.1,50.6
2023/7/27,14:00,32.9,51.1
2023/7/27,15:00,29.1,37.7
2023/7/27,16:00,30.6,44.5
2023/7/27,17:00,30.2,34.3
2023/7/27,18:00,25.8,28.1
2023/7/27,19:00,24.9,25.7
2023/7/27,20:00,24.6,25.2
2023/7/27,21:00,24.2,24.8
2023/7/27,22:00,23.9,24.7
2023/7/27,23:00,23.4,24.3
2023/7/27,24:00,23.4,23.9
2023/7/28,1:00,23.1,23.5
2023/7/28,2:00,22.9,23.2
2023/7/28,3:00,22.6,23.0
2023/7/28,4:00,22.4,22.7
2023/7/28,5:00,22.2,23.0
2023/7/28,6:00,24.5,32.0
2023/7/28,7:00,27.6,39.1
2023/7/28,8:00,29.3,43.2
2023/7/28,9:00,29.8,45.2
2023/7/28,10:00,30.9,46.8
2023/7/28,11:00,32.0,48.1
2023/7/28,12:00,31.9,48.5
2023/7/28,13:00,33.1,49.5
2023/7/28,14:00,34.4,50.8
2023/7/28,15:00,33.8,49.7
2023/7/28,16:00,32.8,46.8
2023/7/28,17:00,29.5,35.5
2023/7/28,18:00,29.5,33.3
2023/7/28,19:00,27.8,30.2
2023/7/28,20:00,26.2,28.8
2023/7/28,21:00,24.4,26.6
2023/7/28,22:00,24.4,26.1
2023/7/28,23:00,24.1,25.5
2023/7/28,24:00,23.9,24.9
2023/7/29,1:00,23.3,24.5
2023/7/29,2:00,23.3,23.9
2023/7/29,3:00,23.0,23.5
2023/7/29,4:00,22.9,23.3
2023/7/29,5:00,22.6,23.5
2023/7/29,6:00,25.1,32.9
2023/7/29,7:00,28.0,39.5
2023/7/29,8:00,29.3,43.0
2023/7/29,9:00,30.5,45.5
2023/7/29,10:00,31.5,46.7
2023/7/29,11:00,31.5,47.4
2023/7/29,12:00,32.2,49.0
2023/7/29,13:00,32.6,49.9
2023/7/29,14:00,32.6,50.7
2023/7/29,15:00,32.9,50.4
2023/7/29,16:00,32.4,48.2
2023/7/29,17:00,31.8,44.3
2023/7/29,18:00,29.3,36.7
2023/7/29,19:00,27.5,30.3
2023/7/29,20:00,25.1,27.1
2023/7/29,21:00,24.6,26.0
2023/7/29,22:00,24.0,25.2
2023/7/29,23:00,23.6,24.7
2023/7/29,24:00,23.1,24.0
2023/7/30,1:00,22.8,23.7
2023/7/30,2:00,22.4,23.2
2023/7/30,3:00,22.4,23.0
2023/7/30,4:00,22.1,22.6
2023/7/30,5:00,22.1,23.0
2023/7/30,6:00,24.6,32.3
2023/7/30,7:00,27.7,39.2
2023/7/30,8:00,29.9,43.7
2023/7/30,9:00,30.7,45.7
2023/7/30,10:00,31.1,47.0
2023/7/30,11:00,31.6,47.5
2023/7/30,12:00,32.8,49.7
2023/7/30,13:00,33.3,50.5
2023/7/30,14:00,33.5,51.2
2023/7/30,15:00,33.6,51.7
2023/7/30,16:00,33.4,49.8
2023/7/30,17:00,32.9,45.7
2023/7/30,18:00,30.1,36.8
2023/7/30,19:00,28.5,31.1
2023/7/30,20:00,27.7,29.6
2023/7/30,21:00,26.8,28.3
2023/7/30,22:00,26.5,27.7
2023/7/30,23:00,26.1,27.1
2023/7/30,24:00,25.8,26.5
2023/7/31,1:00,25.1,25.8
2023/7/31,2:00,24.7,25.3
2023/7/31,3:00,24.9,25.4
2023/7/31,4:00,25.2,25.7
2023/7/31,5:00,25.4,26.4
2023/7/31,6:00,26.3,29.1
2023/7/31,7:00,26.7,31.3
2023/7/31,8:00,30.0,43.8
2023/7/31,9:00,31.1,46.0
2023/7/31,10:00,32.1,47.4
2023/7/31,11:00,33.2,48.4
2023/7/31,12:00,33.6,48.8
2023/7/31,13:00,33.7,49.3
2023/7/31,14:00,28.9,36.5
2023/7/31,15:00,26.6,33.2
2023/7/31,16:00,24.6,29.7
2023/7/31,17:00,24.5,28.9
2023/7/31,18:00,24.7,27.3
2023/7/31,19:00,25.0,26.7
2023/7/31,20:00,24.6,26.0
2023/7/31,21:00,24.4,25.7
2023/7/31,22:00,24.6,25.6
2023/7/31,23:00,24.5,25.3
2023/7/31,24:00,24.6,25.3
